User: anonymous   Login
Location: NJAA Observatory
(40.6819°N, 74.8979°W)
Time: 07:38:02
(UTC-04:00)
Language:

Cosmos 2263 Rocket - Orbit

View from above orbital plane
View from above orbital plane
View from above satellite
View from above satellite

Ground track
Ground track

The orbit data is extracted from the following two-line orbital elements,

1 22803U 93059B   17082.93583774 +.00000082 +00000-0 +64690-4 0  9994
2 22803 070.9892 069.0784 0016518 163.0045 197.1636 14.16765848215951
Epoch (UTC): 23 March 2017 22:27:36
Eccentricity: 0.0016518
inclination: 70.9892°
perigee height: 824 km
apogee height: 848 km
right ascension of ascending node: 69.0784°
argument of perigee: 163.0045°
revolutions per day: 14.16765848
mean anomaly at epoch: 197.1636°
orbit number at epoch: 21595

The dashed part of the orbit path shows where the satellite is in the earth's shadow,  

DLR